Location: Newark
(52.4787°S, 179.0532°W)
Time: 15:11:46
(UTC+00:00)

Vanguard 1 - Pass Details

Date: 17 November 2019
Orbit: 652 x 3832 km, 34.3° (Epoch: 09 December)

Event Time Altitude Azimuth Distance (km) Brightness Sun altitude
Rises 14:55:37 0° 274° (W) 6,941 13.9 -7.0°
Reaches altitude 10° 15:00:14 10° 280° (W) 6,254 13.6 -6.5°
Maximum altitude 15:18:55 40° 339° (NNW) 4,877 13.2 -4.4°
Drops below altitude 10° 15:38:22 10° 39° (NE) 6,458 14.3 -2.0°
Sets 15:43:17 0° 45° (NE) 7,173 14.6 -1.4°
